SCOUT B R/B, 2206

Orbit data source: Space-Track

SCOUT B R/B, 2206 is space debris in LEO originally from a launch on Fri, 10 Jun 1966 UTC launched from the Wallops Island (WLPIS). Debris objects in space refer to the collection of defunct objects orbiting the Earth. Examples of debris include non-operational satellites, rocket bodies, and fragments generated from explosions, collisions, or faulty payload assembly.

Loading next visibility...
Identifier
2206, 1966-052B
Orbit
LEO
Last TLE update
1 day ago
Origin
Manufacturer
UTC
Mission
Spacecraft
Bus & Motor
FW4, Unknown motor
Mass
47 kg wet, 47 kg dry
Launch date (UTC)
1966-06-10 (59 years ago)
Launch vehicle
Unknown
Launch site
Wallops Island (WLPIS)
Object type
Payload
Rocket body
Debris
Shape & HBR
Cyl, 1.5 m
Radar Cross Section
0.687 m², Medium (>0.1 m² and < 1m²)

Expand to show TLE details & history

TLE from 1 day ago
0 SCOUT B R/B
1 02206U 66052B   25182.03905695  .00000159  00000-0  29461-3 0  9994
2 02206  40.8490 191.0548 2208329  23.4949 345.2696 10.14349781167122
Epoch: 2025-07-01T00:56Z
TLE epoch observation values (Epoch: 2025-07-01T00:56:14.52Z)
Latitude
-0.00009°
Longitude
-102.34605°
Altitude
751.679 km
Speed
8.223 km/s
True Right ascension
12h 44m 13s
True Declination
0° 00' 00"
Sunlit
Object was in daylight at epoch
Visualization orbit readout
Latitude
-39.76677°
Longitude
-178.64336°
Altitude
2,704.614 km
Speed
6.605 km/s
Apparent Right ascension
06h 24m 27s
Apparent Declination
-41° 55' 03"
Sunlit
Object is in daylight
Visualization observer readout
Local Sidereal Time
16:35:56
Azimuth
255.547° W
Elevation
-69.488°
Doppler factor
1
Orbital elements
Apogee altitude
4,629.415 km
Perigee altitude
647.167 km
Semi-major axis
9,016.428 km
Eccentricity
0.22083
Inclination
40.849°
RAAN
191.0548°
Arg. of periapsis
23.4949°
True anomaly
Unknown
Mean anomaly
345.2696°
Eccentric anomaly
Unknown
Mean motion
2.53508 °/min
Orbital period
142.01 mins
BSTAR
0.00029461
Loading maneuver chart data...
Loading SW <> Apogee altitude chart data...
Loading historical data...
Loading historical data...
Loading historical data...
Loading historical data...
Loading historical data...
Loading historical data...
Loading historical data...
Other satellites on launch #52 in the year 1966 (1966-06-10 UTC)

SCOUT B R/B Visibility forecast

Observer location: undefined°, undefined°

Span
Click to sort rows by Start time (UTC) header in descending order
Start Az.
Max El. time (UTC)
Max El. Az.
Max El.
End time (UTC)
End Az.
14 mins2025-07-02 05:33:27.786Z255.456° W2025-07-02 05:38:27.786Z102.14° ESE44.795°2025-07-02 05:47:27.786Z79.899° E
23 mins2025-07-02 08:02:27.786Z280.558° WNW2025-07-02 08:08:27.786Z249.955° W44.845°2025-07-02 08:25:27.786Z107.33° ESE
30 mins2025-07-02 10:31:27.786Z278.114° WNW2025-07-02 10:41:27.786Z206.048° SW37.835°2025-07-02 11:01:27.786Z144.536° SSE
24 mins2025-07-02 13:04:27.786Z260.428° W2025-07-02 13:14:27.786Z225.073° WSW18.836°2025-07-02 13:28:27.786Z190.351° SSW
5 mins2025-07-03 02:46:27.786Z168.622° S2025-07-03 02:48:27.786Z134.869° SE18.673°2025-07-03 02:51:27.786Z96.846° ESE
|